Showing default

OSCAR 23 (KITSAT 1), 22077

Orbit data source: Space-Track

OSCAR 23 (KITSAT 1), 22077 is a payload satellite owned by KAIST (KR) in LEO that was launched on Mon, 10 Aug 1992 UTC via an ARIANE 42P launch vehicle from the French Guiana (FRGUI). Payload-class satellites include a variety of spacecraft equipped with specific instruments for various scientific and technological missions. These include communications satellites like Starlink; space stations such as the ISS; scientific satellites like the Hubble; Earth observation satellites from companies like Planet Labs, Umbra, and HawkEye 360; GPS; miniature CubeSats for education and research; and military/defense satellites.

Loading next visibility...
Identifier
22077, 1992-052B
Orbit
LEO
Country
Flag of UnknownUnknown / SKOR
Related business
Manufacturer
SSTL
Mission
Non-operational Civil Communications
Bus & Motor
UOSAT, Unknown motor
Mass
48 kg wet, 48 kg dry
Launch date (UTC)
1992-08-10 (33 years ago)
Launch vehicle
ARIANE 42P
Launch site
French Guiana (FRGUI)
Object type
Payload
Rocket body
Debris
Shape & HBR
Hex Poly, 0.3 m
Radar Cross Section
0.353 m², Medium (>0.1 m² and < 1m²)

Expand to show TLE details & history
Last TLE update: 9 hours ago

TLE from 9 hours ago
0 OSCAR 23 (KITSAT 1)
1 22077U 92052B   25297.71758713 -.00000056  00000-0  21808-4 0  9995
2 22077  66.0862  54.4089 0005872 338.9670 129.1661 12.86603283559392
Epoch: 2025-10-24T17:13Z
TLE epoch observation values (Epoch: 2025-10-24T17:13:19.528Z)
Latitude
60.39539°
Longitude
-108.22523°
Altitude
1,327.296 km
Speed
7.198 km/s
True Right ascension
12h 13m 51s
True Declination
60° 15' 30"
Sunlit
Object was in daylight at epoch
Visualization orbit readout
Latitude
Unknown
Longitude
Unknown
Altitude
Unknown
Speed
Unknown
Apparent Right ascension
Unknown
Apparent Declination
Unknown
Sunlit
N/A
Visualization observer readout
Local Sidereal Time
21:00:10
Azimuth
Unknown
Elevation
Unknown
Doppler factor
Unknown
Orbital elements
Apogee altitude
1,318.104 km
Perigee altitude
1,309.071 km
Semi-major axis
7,691.725 km
Eccentricity
0.00059
Inclination
66.0862°
RAAN
54.4089°
Arg. of periapsis
338.967°
True anomaly
129.21825°
Mean anomaly
129.1661°
Eccentric anomaly
129.19218°
Mean motion
3.21742 °/min
Orbital period
111.89 mins
BSTAR
0.000021808
Loading maneuver chart data...
Computing Atmospheric mass density...
Loading historical data...
Loading historical data...
Loading historical data...
Loading historical data...
Loading historical data...
Loading historical data...
Loading historical data...

Documentation

Showing up to 5 results
|